[[{"header":{"parameterUnit":"m.s-1","parameterCategory":2,"la1":30.2991,"la2":30.254,"lo1":-89.0895,"lo2":-89.0444,"dy":0.0017,"dx":0.0017,"nx":28,"ny":28,"refTime":"2025-01-23T03:00:00:Z","depth":"0","parameterNumber":2,"parameterNumberName":"U-component_of_CURRENTS"},"data":[0,0,0,0,0,0,0,0,0,0,0,0,0,0,0,0,0,0,0,0,0,0,0,0,0,0,0,0,0,0,0,0,0,0,0,0,0,0,0,0,0,0,0,0,0,0,0,0,0,0,0,0,0,0,0,0,0,0,0.2157,0.2157,0,0.2075,0.2073,0.2072,0.2027,0.2028,0.2028,0.2029,0.1987,0.1986,0.1984,0,0,0,0,0,0,0,0,0,0,0,0,0,0.2275,0.2272,0.2157,0.2157,0.2156,0.2075,0.2073,0.2071,0.2027,0.2028,0.2029,0.2029,0.1988,0.1986,0.1984,0,0,0,0,0,0,0,0,0,0,0,0,0,0.2205,0.2272,0.2157,0.2129,0.2126,0.2075,0.2073,0.2071,0.2027,0.2028,0.2029,0.2029,0.1988,0.1986,0.1984,0.1955,0,0,0.1977,0.1976,0,0,0,0,0,0,0,0,0.2209,0.22,0.2134,0.2131,0.2128,0.2068,0.21,0.2036,0.2027,0.2058,0.2029,0.203,0.2022,0.2017,0.199,0.1953,0.1951,0.1977,0.1975,0.1974,0.1973,0,0,0,0,0,0,0,0.2214,0.2204,0.2118,0.2134,0.213,0.2121,0.2111,0.2087,0.2033,0.2056,0.2054,0.2054,0.2019,0.1992,0.1989,0.1951,0.1977,0.1975,0.1973,0.1972,0.203,0.2033,0,0,0,0,0,0,0.2236,0.2208,0.2121,0.2116,0.2178,0.2118,0.2107,0.2081,0.2032,0.2027,0.2054,0.2053,0.1996,0.1992,0.1987,0.2067,0.1974,0.1972,0.1971,0.2027,0.203,0.2034,0,0,0,0,0,0,0.2238,0.2228,0.2124,0.2167,0.2154,0.2116,0.2087,0.2079,0.2068,0.2031,0.2026,0.2054,0.1996,0.1991,0.1993,0.2061,0.1971,0.1969,0.2023,0.2028,0.2032,0.2153,0,0,0,0,0,0,0.2241,0.2228,0.2222,0.2168,0.2153,0.2126,0.2087,0.2077,0.207,0.2067,0.203,0.2025,0.1996,0.1997,0.1991,0.2056,0.1967,0.202,0.2025,0.2031,0.2145,0.2161,0.2174,0,0,0,0,0,0.2245,0.224,0.2221,0.2212,0.2142,0.2129,0.212,0.2092,0.207,0.208,0.2052,0.2027,0.203,0.1996,0.1989,0.2055,0.2017,0.2024,0.203,0.2138,0.2158,0.2174,0,0,0,0,0,0,0.2291,0.2234,0.2212,0.219,0.2177,0.2124,0.2128,0.2102,0.2082,0.2079,0.2037,0.2032,0.2074,0.2041,0.2006,0.2093,0.203,0.2036,0.2116,0.2133,0.2147,0.2245,0.1965,0,0,0,0,0,0.2297,0.2277,0.2234,0.2223,0.2216,0.2171,0.2162,0.2142,0.2116,0.2106,0.2077,0.2068,0.209,0.2091,0.2092,0.2112,0.2146,0.2161,0.2175,0.2188,0.2265,0.2373,0.2405,0.2055,0.2055,0.2055,0,0,0.2308,0.2282,0.2266,0.2233,0.2211,0.2222,0.2166,0.2161,0.2189,0.2106,0.2127,0.2112,0.2109,0.2151,0.2169,0.2132,0.2294,0.2196,0.2207,0.2279,0.2384,0.2418,0.2449,0.206,0.2059,0.2058,0,0,0.235,0.2301,0.2311,0.2301,0.2286,0.2265,0.2273,0.2229,0.2233,0.2241,0.2218,0.2258,0.223,0.2276,0.2291,0.2389,0.2372,0.237,0.2515,0.2616,0.2647,0.2675,0.2714,0.2745,0.2371,0.2371,0.2372,0,0.2374,0.2373,0.2319,0.2338,0.2349,0.2295,0.2332,0.2325,0.2293,0.2332,0.2275,0.2345,0.232,0.2448,0.2483,0.2432,0.2457,0.2439,0.2639,0.2667,0.2694,0.2728,0.276,0.2378,0.2377,0.2377,0.2376,0,0.2424,0.2433,0.2444,0.2448,0.2454,0.2473,0.2463,0.2476,0.2464,0.2475,0.2578,0.2556,0.2619,0.2609,0.2573,0.2756,0.2699,0.2646,0.2598,0.2737,0.2762,0.2794,0.2388,0.2385,0.2383,0.2382,0,0,0.2457,0.2477,0.248,0.2522,0.2515,0.2532,0.2588,0.2652,0.2724,0.2723,0.2847,0.2897,0.29,0.2925,0.2893,0.2978,0.3144,0.2899,0.29,0.2946,0.3336,0.3116,0.3127,0.3116,0.3123,0.3129,0.3261,0,0.2525,0.2609,0.2583,0.2671,0.2725,0.2698,0.2765,0.2815,0.2845,0.294,0.2999,0.3081,0.3015,0.3043,0.314,0.3137,0.3242,0.3113,0.3193,0.3196,0.299,0.3163,0.294,0.3026,0.3291,0.3296,0.33,0,0.2594,0.2649,0.275,0.2831,0.2846,0.288,0.299,0.3037,0.3155,0.3188,0.3304,0.3311,0.3459,0.3362,0.3524,0.3434,0.3442,0.3434,0.3437,0.3235,0.3037,0.294,0.3073,0.2984,0.3348,0.3344,0.3341,0,0.2703,0.2769,0.2868,0.2884,0.2954,0.3003,0.3041,0.3135,0.3187,0.3355,0.34,0.3574,0.3613,0.3716,0.3658,0.362,0.3796,0.3725,0.3557,0.3537,0.3374,0.3327,0.3449,0.3919,0.3918,0.3918,0.3918,0,0.2814,0.2887,0.2924,0.2981,0.3093,0.3106,0.3224,0.3286,0.3378,0.3448,0.3538,0.3604,0.3704,0.3756,0.3766,0.3731,0.3884,0.3658,0.3597,0.3396,0.3352,0.3281,0.3259,0.3923,0.3922,0.3921,0.392,0,0.2935,0.2956,0.3065,0.3137,0.3152,0.3237,0.3276,0.3337,0.3426,0.3517,0.3564,0.3657,0.3701,0.3741,0.3852,0.3795,0.3704,0.3776,0.3489,0.3393,0.3121,0.3111,0.3146,0.3064,0.3665,0.3661,0.3658,0,0.3009,0.3087,0.3163,0.3183,0.3206,0.329,0.3313,0.338,0.3405,0.351,0.3538,0.3609,0.3605,0.3659,0.3594,0.3593,0.3547,0.3386,0.3302,0.3144,0.3092,0.3028,0.2954,0.3125,0.3117,0.3111,0.3106,0,0.3142,0.3157,0.3221,0.3245,0.3265,0.3294,0.3321,0.3339,0.3382,0.3418,0.3426,0.3439,0.3436,0.3295,0.325,0.3233,0.3197,0.3254,0.3218,0.2818,0.2643,0.2513,0.296,0.3051,0.3057,0.3061,0.3064,0.3066,0.319,0.3232,0.3243,0.3261,0.3267,0.3214,0.3166,0.3166,0.3149,0.3087,0.3221,0.3121,0.3048,0.2926,0.2896,0.2674,0.2789,0.2583,0.2626,0.2609,0.2417,0.27,0.262,0.2622,0.2625,0.2627,0.2629,0,0.3154,0.3172,0.3218,0.3171,0.3093,0.3117,0.3069,0.2957,0.2831,0.285,0.2799,0.2619,0.2458,0.2404,0.2202,0.2086,0.2054,0.204,0.1968,0.1961,0.2326,0.2182,0.1846,0.1846,0.1846,0.1846,0.1846,0.1846,0.3127,0.3094,0.3101,0.295,0.2896,0.2698,0.2613,0.2502,0.2454,0.2252,0.2107,0.2094,0.2092,0.1959,0.1773,0.1725,0.1665,0.1524,0.164,0.1931,0.1987,0.204,0.1903,0.1513,0.1513,0.1151,0.1148,0.1146]},{"header":{"parameterUnit":"m.s-1","parameterCategory":2,"la1":30.2991,"la2":30.254,"lo1":-89.0895,"lo2":-89.0444,"dy":0.0017,"dx":0.0017,"nx":28,"ny":28,"refTime":"2025-01-23T03:00:00:Z","depth":"0","parameterNumber":3,"parameterNumberName":"V-component_of_CURRENTS"},"data":[0,0,0,0,0,0,0,0,0,0,0,0,0,0,0,0,0,0,0,0,0,0,0,0,0,0,0,0,0,0,0,0,0,0,0,0,0,0,0,0,0,0,0,0,0,0,0,0,0,0,0,0,0,0,0,0,0,0,-0.0157,-0.0157,0,-0.0161,-0.0161,-0.0161,-0.0183,-0.0184,-0.0185,-0.0185,-0.0221,-0.0222,-0.0222,0,0,0,0,0,0,0,0,0,0,0,0,0,-0.0196,-0.0195,-0.0157,-0.0157,-0.0157,-0.0161,-0.0161,-0.0161,-0.0183,-0.0184,-0.0185,-0.0185,-0.0221,-0.0222,-0.0222,0,0,0,0,0,0,0,0,0,0,0,0,0,-0.0186,-0.0194,-0.0157,-0.0169,-0.0171,-0.0161,-0.0161,-0.0161,-0.0183,-0.0184,-0.0185,-0.0186,-0.0221,-0.0222,-0.0222,-0.0207,0,0,-0.0224,-0.0224,0,0,0,0,0,0,0,0,-0.0187,-0.0185,-0.0167,-0.0169,-0.017,-0.0174,-0.0188,-0.0179,-0.0183,-0.0177,-0.0185,-0.0186,-0.0208,-0.021,-0.0207,-0.0209,-0.021,-0.0224,-0.0224,-0.0225,-0.0225,0,0,0,0,0,0,0,-0.0187,-0.0185,-0.0158,-0.0168,-0.0169,-0.0185,-0.0184,-0.0187,-0.0187,-0.0178,-0.018,-0.0182,-0.0209,-0.0206,-0.0208,-0.0211,-0.0224,-0.0225,-0.0225,-0.0225,-0.0189,-0.0188,0,0,0,0,0,0,-0.0186,-0.0185,-0.0157,-0.0158,-0.0182,-0.0183,-0.0182,-0.0171,-0.0187,-0.019,-0.0181,-0.0183,-0.0205,-0.0207,-0.0209,-0.0161,-0.0225,-0.0225,-0.0226,-0.019,-0.0189,-0.0187,0,0,0,0,0,0,-0.0187,-0.0183,-0.0157,-0.0174,-0.0172,-0.0181,-0.0168,-0.017,-0.0171,-0.0189,-0.0193,-0.018,-0.0206,-0.0209,-0.0208,-0.0164,-0.0225,-0.0226,-0.0192,-0.019,-0.0188,-0.0085,0,0,0,0,0,0,-0.0188,-0.0183,-0.0174,-0.0173,-0.0171,-0.0141,-0.0168,-0.017,-0.0171,-0.0174,-0.0189,-0.0194,-0.0207,-0.0207,-0.0209,-0.0166,-0.0226,-0.0194,-0.0191,-0.0189,-0.009,-0.008,-0.0071,0,0,0,0,0,-0.0189,-0.0161,-0.0173,-0.0171,-0.0158,-0.014,-0.0139,-0.015,-0.017,-0.0157,-0.0175,-0.0193,-0.0193,-0.0207,-0.0209,-0.0165,-0.0195,-0.0192,-0.0189,-0.0094,-0.0082,-0.0071,0,0,0,0,0,0,-0.0166,-0.0161,-0.0174,-0.0146,-0.0143,-0.0144,-0.0133,-0.0147,-0.015,-0.0157,-0.0182,-0.0186,-0.0164,-0.0186,-0.0201,-0.0149,-0.0194,-0.0192,-0.0122,-0.011,-0.0101,-0.0048,-0.0227,0,0,0,0,0,-0.016,-0.0143,-0.0143,-0.0122,-0.0118,-0.013,-0.0126,-0.0134,-0.0137,-0.014,-0.0153,-0.0163,-0.0151,-0.0151,-0.015,-0.0128,-0.0129,-0.0101,-0.0091,-0.0083,-0.0042,-0.0006,0.0012,-0.0178,-0.0178,-0.0178,0,0,-0.0147,-0.0142,-0.0134,-0.0118,-0.0118,-0.0094,-0.0129,-0.0115,-0.0091,-0.0143,-0.0118,-0.0132,-0.014,-0.0107,-0.0099,-0.0121,-0.0037,-0.0079,-0.0072,-0.0034,-0.0001,0.0018,0.0035,-0.0176,-0.0176,-0.0177,0,0,-0.011,-0.0107,-0.0084,-0.0074,-0.0071,-0.0069,-0.0065,-0.0065,-0.006,-0.0044,-0.0064,-0.0042,-0.0055,-0.0025,-0.0018,0.0044,0.0012,0.0025,0.0121,0.0155,0.0172,0.0187,0.0181,0.0194,0.0031,0.0031,0.0032,0,-0.0099,-0.0066,-0.0073,-0.0046,-0.0027,-0.0054,-0.0016,-0.0008,-0.0009,0.0023,-0.0026,0.0027,0.0002,0.0091,0.0104,0.0074,0.0063,0.0079,0.0171,0.0185,0.0199,0.019,0.0203,0.0037,0.0036,0.0036,0.0035,0,-0.0044,-0.002,-0.0001,0.0026,0.0049,0.0076,0.0089,0.0113,0.0104,0.0121,0.019,0.0171,0.0215,0.0202,0.0167,0.0263,0.0212,0.0178,0.0148,0.0225,0.0208,0.0221,0.0044,0.0042,0.0041,0.004,0,0,-0.0022,0.0027,0.0031,0.0066,0.009,0.0126,0.0178,0.0241,0.0312,0.0303,0.0402,0.0412,0.0412,0.0422,0.0394,0.0415,0.047,0.0335,0.0334,0.0341,0.0515,0.039,0.039,0.0443,0.0446,0.0449,0.0455,0,0.0016,0.0091,0.0104,0.0184,0.0227,0.0245,0.0313,0.037,0.0406,0.0492,0.0508,0.0571,0.0493,0.0517,0.0537,0.0495,0.0513,0.0471,0.0431,0.043,0.032,0.0406,0.0376,0.0372,0.0467,0.0469,0.0471,0,0.006,0.0108,0.0193,0.0292,0.0316,0.0364,0.0496,0.0554,0.0664,0.0695,0.0771,0.0769,0.0828,0.0729,0.0739,0.0708,0.0633,0.0583,0.0581,0.045,0.0331,0.0315,0.039,0.0312,0.0489,0.0488,0.0486,0,0.0097,0.0175,0.0253,0.028,0.0382,0.0443,0.0506,0.0623,0.0707,0.0831,0.089,0.0963,0.0978,0.0945,0.0815,0.0787,0.0791,0.0738,0.0565,0.0552,0.0517,0.0496,0.0531,0.0758,0.0758,0.0758,0.0758,0,0.0144,0.0212,0.0276,0.0326,0.0452,0.0501,0.0652,0.0732,0.0856,0.0965,0.0997,0.1067,0.1026,0.1002,0.0896,0.0763,0.0855,0.0617,0.0568,0.0543,0.0526,0.0443,0.0387,0.0758,0.0758,0.0758,0.0758,0,0.0204,0.0228,0.0333,0.0437,0.0474,0.0576,0.072,0.0824,0.0924,0.1063,0.1097,0.1156,0.1112,0.1037,0.0962,0.0838,0.067,0.0659,0.0605,0.055,0.0304,0.0253,0.0221,0.0184,0.0509,0.0506,0.0504,0,0.0256,0.031,0.0421,0.0472,0.0522,0.0651,0.0736,0.0857,0.0945,0.1095,0.1148,0.1161,0.1152,0.1005,0.0819,0.0652,0.0567,0.0484,0.0434,0.0319,0.0229,0.0195,0.0166,0.0421,0.0418,0.0416,0.0414,0,0.0368,0.0394,0.0472,0.0554,0.0632,0.0746,0.0854,0.0929,0.1051,0.1139,0.1208,0.1218,0.1077,0.0898,0.0659,0.0535,0.0414,0.0425,0.0362,0.022,0.014,0.0069,0.0355,0.0393,0.0396,0.0397,0.0398,0.0399,0.0452,0.0503,0.0554,0.0639,0.0723,0.0798,0.0875,0.096,0.1073,0.1183,0.1199,0.1221,0.0993,0.0668,0.0502,0.0191,0.0216,0.0096,0.006,0.0049,-0.0023,0.0181,0.0117,0.0117,0.0117,0.0118,0.0118,0,0.0509,0.0536,0.0624,0.0697,0.0774,0.0808,0.0919,0.0976,0.1056,0.116,0.12,0.1084,0.0796,0.0539,0.0106,-0.0109,-0.0137,-0.0208,-0.0205,-0.0205,0.0039,-0.0003,-0.0163,-0.0163,-0.0163,-0.0163,-0.0163,-0.0163,0.0531,0.0579,0.0598,0.0696,0.0755,0.0829,0.0875,0.0961,0.1045,0.1108,0.1118,0.1109,0.0889,0.0205,-0.0239,-0.0332,-0.0421,-0.05,-0.0524,-0.0319,-0.0291,-0.0264,-0.0313,-0.0535,-0.0536,-0.0725,-0.0727,-0.0728]}],[{"header":{"parameterUnit":"m.s-1","parameterCategory":2,"la1":30.2991,"la2":30.254,"lo1":-89.0895,"lo2":-89.0444,"dy":0.0017,"dx":0.0017,"nx":28,"ny":28,"refTime":"2025-01-23T03:00:00:Z","depth":"2","parameterNumber":2,"parameterNumberName":"U-component_of_CURRENTS"},"data":[0,0,0,0,0,0,0,0,0,0,0,0,0,0,0,0,0,0,0,0,0,0,0,0,0,0,0,0,0,0,0,0,0,0,0,0,0,0,0,0,0,0,0,0,0,0,0,0,0,0,0,0,0,0,0,0,0,0,0.1648,0.1648,0,0.1619,0.1618,0.1618,0.162,0.162,0.1621,0.1622,0.1613,0.1612,0.1611,0,0,0,0,0,0,0,0,0,0,0,0,0,0.1712,0.1711,0.1648,0.1648,0.1648,0.1619,0.1618,0.1617,0.1619,0.162,0.1621,0.1622,0.1613,0.1612,0.1611,0,0,0,0,0,0,0,0,0,0,0,0,0,0.1681,0.171,0.1648,0.1647,0.1647,0.1619,0.1618,0.1617,0.1619,0.162,0.1621,0.1622,0.1614,0.1613,0.1611,0.1584,0,0,0.1607,0.1607,0,0,0,0,0,0,0,0,0.1683,0.1679,0.1647,0.1647,0.1647,0.1626,0.1638,0.1608,0.1619,0.1627,0.1622,0.1623,0.162,0.1618,0.1607,0.1583,0.1583,0.1607,0.1607,0.1606,0.1606,0,0,0,0,0,0,0,0.1685,0.168,0.1634,0.1647,0.1647,0.1651,0.1647,0.1632,0.1617,0.1626,0.1627,0.1628,0.162,0.1608,0.1607,0.1583,0.1607,0.1606,0.1605,0.1605,0.1642,0.1643,0,0,0,0,0,0,0.1692,0.1682,0.1635,0.1633,0.1671,0.1649,0.1645,0.163,0.1617,0.1616,0.1627,0.1628,0.161,0.1608,0.1607,0.1685,0.1606,0.1605,0.1604,0.164,0.1642,0.1644,0,0,0,0,0,0,0.1693,0.1687,0.1636,0.166,0.1654,0.1647,0.163,0.1629,0.1635,0.1617,0.1617,0.1638,0.161,0.1608,0.1624,0.168,0.1604,0.1603,0.1638,0.1641,0.1643,0.1769,0,0,0,0,0,0,0.1695,0.1687,0.1686,0.166,0.1653,0.1648,0.1629,0.1627,0.1634,0.1636,0.1626,0.1625,0.1611,0.1626,0.1622,0.1677,0.1602,0.1636,0.1639,0.1642,0.1763,0.1776,0.1787,0,0,0,0,0,0.1697,0.1692,0.1685,0.168,0.1648,0.1649,0.1647,0.1643,0.1634,0.1649,0.1644,0.1626,0.1645,0.1626,0.1621,0.1677,0.1634,0.1638,0.1642,0.1758,0.1773,0.1787,0,0,0,0,0,0,0.1717,0.1691,0.1683,0.167,0.1674,0.1651,0.1663,0.1652,0.1655,0.1662,0.1637,0.1636,0.1684,0.1649,0.1629,0.1697,0.164,0.1644,0.173,0.1745,0.1756,0.1816,0.1601,0,0,0,0,0,0.1719,0.1718,0.1695,0.1695,0.1695,0.1679,0.168,0.168,0.1675,0.1677,0.1667,0.1666,0.169,0.1692,0.1701,0.1717,0.174,0.1753,0.1765,0.1775,0.1821,0.19,0.1925,0.1657,0.1657,0.1656,0,0,0.173,0.1717,0.1716,0.1702,0.17,0.1712,0.1683,0.1698,0.1727,0.1675,0.1711,0.1712,0.1707,0.1751,0.1766,0.1729,0.186,0.178,0.1789,0.183,0.1907,0.1933,0.1957,0.1659,0.1659,0.1658,0,0,0.1754,0.1738,0.1744,0.1753,0.1759,0.1752,0.1761,0.1751,0.177,0.1787,0.1787,0.183,0.181,0.1854,0.1864,0.1941,0.1932,0.1926,0.2026,0.2102,0.2126,0.2147,0.2204,0.2229,0.1919,0.192,0.192,0,0.1771,0.1774,0.1753,0.1769,0.1795,0.1774,0.1808,0.1815,0.1817,0.1863,0.1819,0.1893,0.1877,0.1987,0.2014,0.1978,0.2003,0.1972,0.2122,0.2143,0.2163,0.2216,0.2243,0.1926,0.1926,0.1925,0.1924,0,0.1793,0.1815,0.1829,0.1843,0.1863,0.1898,0.1907,0.1935,0.1941,0.1965,0.2068,0.206,0.2115,0.2112,0.208,0.2223,0.2191,0.214,0.2094,0.2199,0.2246,0.2272,0.1936,0.1933,0.1931,0.193,0,0,0.1798,0.1838,0.185,0.1901,0.1919,0.1952,0.2002,0.2073,0.2151,0.216,0.2271,0.2317,0.2334,0.235,0.2335,0.2389,0.2531,0.2323,0.2324,0.2396,0.2697,0.243,0.2432,0.2502,0.2507,0.2511,0.2672,0,0.1838,0.1917,0.1909,0.2007,0.2064,0.2076,0.2132,0.2199,0.2249,0.2341,0.239,0.248,0.2418,0.2458,0.2514,0.2519,0.2606,0.2493,0.2572,0.2575,0.2338,0.2455,0.2282,0.2389,0.2697,0.2701,0.2704,0,0.188,0.1934,0.2038,0.2147,0.2168,0.2215,0.2353,0.2411,0.2525,0.2547,0.2649,0.2677,0.2785,0.2698,0.2822,0.2746,0.2762,0.2759,0.2764,0.2498,0.2355,0.2333,0.2423,0.2746,0.2743,0.274,0.2737,0,0.1964,0.2044,0.2151,0.2184,0.2267,0.2336,0.2401,0.251,0.2577,0.2721,0.2759,0.2888,0.2917,0.2993,0.2922,0.2916,0.3007,0.2996,0.2802,0.2782,0.2644,0.26,0.315,0.315,0.3149,0.3149,0.3149,0,0.2046,0.2133,0.221,0.2275,0.2415,0.245,0.2602,0.2666,0.2753,0.2806,0.2901,0.2917,0.2988,0.3004,0.3006,0.2921,0.3078,0.2865,0.282,0.2672,0.2632,0.2937,0.291,0.3155,0.3154,0.3152,0.3151,0,0.2139,0.2182,0.2314,0.2421,0.2468,0.259,0.2695,0.2743,0.2845,0.2909,0.2948,0.2974,0.2958,0.2983,0.3039,0.2964,0.2957,0.2898,0.2685,0.2609,0.2699,0.2677,0.2811,0.2803,0.2797,0.2791,0.2787,0,0.221,0.2287,0.2432,0.2462,0.2514,0.2658,0.2686,0.2794,0.2784,0.2881,0.2844,0.2902,0.2812,0.2778,0.2697,0.2686,0.2779,0.2495,0.2458,0.2729,0.2674,0.2661,0.2649,0.2359,0.2351,0.2345,0.234,0,0.2306,0.2349,0.2396,0.2488,0.254,0.2618,0.2662,0.2662,0.2699,0.2717,0.2642,0.2633,0.2576,0.2398,0.233,0.2308,0.248,0.2358,0.276,0.2396,0.2294,0.224,0.2246,0.2284,0.2289,0.2293,0.2296,0.2299,0.2322,0.2364,0.2381,0.2423,0.25,0.2489,0.2458,0.2415,0.2393,0.23,0.2364,0.2255,0.2241,0.2017,0.1927,0.1894,0.2089,0.2053,0.2079,0.2111,0.1955,0.1838,0.1716,0.1718,0.172,0.1722,0.1723,0,0.2288,0.2259,0.2284,0.2286,0.2262,0.2375,0.2319,0.2189,0.2033,0.2027,0.1948,0.1741,0.1617,0.1638,0.1502,0.1468,0.1549,0.1419,0.1545,0.16,0.1649,0.1475,0.1107,0.1105,0.1103,0.1101,0,0,0.2237,0.2145,0.2101,0.1987,0.2011,0.1923,0.1858,0.1729,0.1678,0.1512,0.1449,0.1528,0.1586,0.1321,0.1281,0.1174,0.1391,0.1133,0.1633,0.1839,0.1886,0.2018,0.1808,0,0,0,0,0]},{"header":{"parameterUnit":"m.s-1","parameterCategory":2,"la1":30.2991,"la2":30.254,"lo1":-89.0895,"lo2":-89.0444,"dy":0.0017,"dx":0.0017,"nx":28,"ny":28,"refTime":"2025-01-23T03:00:00:Z","depth":"2","parameterNumber":3,"parameterNumberName":"V-component_of_CURRENTS"},"data":[0,0,0,0,0,0,0,0,0,0,0,0,0,0,0,0,0,0,0,0,0,0,0,0,0,0,0,0,0,0,0,0,0,0,0,0,0,0,0,0,0,0,0,0,0,0,0,0,0,0,0,0,0,0,0,0,0,0,0.0134,0.0134,0,0.0115,0.0115,0.0115,0.0095,0.0095,0.0094,0.0094,0.0071,0.0071,0.0071,0,0,0,0,0,0,0,0,0,0,0,0,0,0.0113,0.0114,0.0134,0.0134,0.0134,0.0115,0.0115,0.0115,0.0095,0.0095,0.0094,0.0094,0.0072,0.0071,0.0071,0,0,0,0,0,0,0,0,0,0,0,0,0,0.011,0.0114,0.0134,0.0123,0.0121,0.0116,0.0115,0.0115,0.0095,0.0095,0.0094,0.0094,0.0072,0.0071,0.007,0.0072,0,0,0.0069,0.0068,0,0,0,0,0,0,0,0,0.011,0.0111,0.0124,0.0123,0.0122,0.0108,0.0099,0.0101,0.0095,0.0104,0.0094,0.0094,0.0084,0.0082,0.0078,0.0071,0.007,0.0068,0.0068,0.0068,0.0068,0,0,0,0,0,0,0,0.0111,0.0111,0.0126,0.0124,0.0123,0.0105,0.0104,0.0099,0.0095,0.0103,0.0102,0.0101,0.0083,0.0079,0.0078,0.007,0.0068,0.0068,0.0067,0.0067,0.0076,0.0077,0,0,0,0,0,0,0.0118,0.0112,0.0126,0.0125,0.0117,0.0105,0.0105,0.0112,0.0095,0.0093,0.0102,0.0101,0.008,0.0078,0.0077,0.0094,0.0068,0.0067,0.0067,0.0076,0.0077,0.0077,0,0,0,0,0,0,0.0117,0.0119,0.0127,0.0118,0.0118,0.0107,0.0114,0.0112,0.0104,0.0094,0.0091,0.0096,0.008,0.0078,0.0073,0.0092,0.0067,0.0066,0.0075,0.0076,0.0077,0.0118,0,0,0,0,0,0,0.0117,0.012,0.0122,0.0119,0.0119,0.0125,0.0115,0.0112,0.0105,0.0103,0.0089,0.0087,0.0079,0.0074,0.0072,0.0091,0.0066,0.0074,0.0076,0.0077,0.0116,0.0121,0.0124,0,0,0,0,0,0.0116,0.0126,0.0123,0.0124,0.0125,0.0125,0.0123,0.0113,0.0105,0.0104,0.0095,0.0087,0.0081,0.0074,0.0072,0.0091,0.0074,0.0075,0.0077,0.0114,0.012,0.0124,0,0,0,0,0,0,0.012,0.0125,0.0121,0.0132,0.0128,0.0122,0.0121,0.0113,0.0104,0.0102,0.009,0.0087,0.0092,0.0083,0.0076,0.0097,0.0078,0.0079,0.0108,0.0113,0.0117,0.0151,0.0065,0,0,0,0,0,0.0123,0.013,0.0129,0.0137,0.0137,0.0127,0.0124,0.0118,0.0112,0.0108,0.0099,0.0094,0.0097,0.0097,0.0094,0.0102,0.0103,0.0114,0.0118,0.0122,0.0149,0.0154,0.0161,0.0082,0.0082,0.0082,0,0,0.0125,0.0129,0.0132,0.0137,0.0134,0.0146,0.0125,0.0124,0.0138,0.0107,0.0118,0.0104,0.0101,0.0113,0.0115,0.0107,0.0143,0.0124,0.0127,0.0152,0.0156,0.0164,0.0171,0.0083,0.0083,0.0083,0,0,0.0142,0.0139,0.0154,0.0155,0.0154,0.0152,0.0153,0.0147,0.0147,0.0152,0.014,0.0141,0.0135,0.0146,0.015,0.0176,0.0162,0.0166,0.0219,0.0223,0.023,0.0236,0.024,0.0246,0.0172,0.0172,0.0172,0,0.0143,0.0175,0.0156,0.0173,0.0188,0.016,0.0188,0.0181,0.0174,0.0196,0.0162,0.0184,0.0162,0.0208,0.0208,0.0189,0.0184,0.0199,0.0229,0.0235,0.0241,0.0244,0.025,0.0174,0.0174,0.0173,0.0173,0,0.0179,0.0202,0.0212,0.0232,0.0235,0.0254,0.0249,0.0255,0.0249,0.0255,0.0285,0.0256,0.0282,0.0263,0.0239,0.0277,0.0257,0.023,0.0219,0.0252,0.0252,0.0258,0.0177,0.0176,0.0176,0.0175,0,0,0.0195,0.0234,0.0238,0.028,0.0276,0.0299,0.0314,0.0351,0.0402,0.0369,0.0434,0.0409,0.0399,0.0403,0.0372,0.0361,0.0372,0.0311,0.031,0.032,0.038,0.0278,0.0274,0.0341,0.0343,0.0344,0.0362,0,0.0238,0.0313,0.0303,0.0374,0.0424,0.0407,0.0444,0.0465,0.0473,0.0519,0.0494,0.0534,0.0451,0.047,0.0444,0.0394,0.0391,0.037,0.0344,0.0344,0.0252,0.0279,0.0288,0.0297,0.0367,0.0368,0.0369,0,0.0285,0.0342,0.0423,0.0509,0.0526,0.0546,0.0628,0.0662,0.0697,0.0707,0.072,0.0695,0.0689,0.0607,0.0551,0.0538,0.0473,0.042,0.0419,0.032,0.0253,0.0276,0.0304,0.0379,0.0378,0.0377,0.0377,0,0.0361,0.0431,0.0515,0.0535,0.0608,0.064,0.0679,0.0724,0.0783,0.0833,0.0872,0.0853,0.0851,0.0769,0.0615,0.0601,0.0532,0.0507,0.0366,0.0358,0.0363,0.0352,0.0489,0.0489,0.0489,0.0489,0.0489,0,0.0438,0.0514,0.0558,0.0613,0.0721,0.0735,0.0843,0.0881,0.0942,0.1011,0.0982,0.1001,0.0886,0.0808,0.0676,0.0519,0.0582,0.0392,0.036,0.0373,0.0363,0.0431,0.0424,0.049,0.049,0.049,0.049,0,0.0528,0.0554,0.0665,0.0741,0.0761,0.0847,0.093,0.1007,0.1063,0.1142,0.1162,0.113,0.1017,0.0873,0.0732,0.0601,0.0464,0.0394,0.0405,0.0372,0.0287,0.0282,0.0291,0.0288,0.0285,0.0282,0.028,0,0.0582,0.0647,0.075,0.0801,0.0831,0.0934,0.0992,0.1061,0.1115,0.1191,0.1215,0.116,0.1073,0.0833,0.061,0.0401,0.0389,0.0282,0.0254,0.0302,0.0269,0.0269,0.0268,0.0289,0.0287,0.0286,0.0285,0,0.0685,0.0715,0.0809,0.09,0.0957,0.1044,0.1113,0.1165,0.1229,0.1274,0.1269,0.1218,0.1001,0.0761,0.0483,0.0346,0.0313,0.0243,0.032,0.0307,0.0292,0.0262,0.0263,0.0272,0.0273,0.0274,0.0275,0.0275,0.0744,0.082,0.0901,0.0995,0.1059,0.1105,0.116,0.1201,0.1263,0.1288,0.1252,0.117,0.0978,0.0583,0.036,0.0161,0.0187,0.0133,0.0142,0.0152,0.0117,0.0094,0.0032,0.0032,0.0032,0.0032,0.0032,0,0.0778,0.0861,0.0969,0.106,0.1114,0.113,0.1199,0.1226,0.1243,0.1245,0.1212,0.0998,0.0764,0.0551,0.0232,0.0042,0.0076,-0.0006,0.009,0.0103,0.0115,0.0082,-0.0013,-0.0014,-0.0015,-0.0015,0,0,0.0801,0.09,0.0962,0.1055,0.1104,0.1144,0.1164,0.1195,0.1208,0.1159,0.1104,0.1041,0.08,0.0561,0.032,0.0145,0.017,0.0117,0.0172,0.0326,0.0339,0.0211,0.0175,0,0,0,0,0]}],[{"header":{"parameterUnit":"m.s-1","parameterCategory":2,"la1":30.2991,"la2":30.254,"lo1":-89.0895,"lo2":-89.0444,"dy":0.0017,"dx":0.0017,"nx":28,"ny":28,"refTime":"2025-01-23T03:00:00:Z","depth":"4","parameterNumber":2,"parameterNumberName":"U-component_of_CURRENTS"},"data":[0,0,0,0,0,0,0,0,0,0,0,0,0,0,0,0,0,0,0,0,0,0,0,0,0,0,0,0,0,0,0,0,0,0,0,0,0,0,0,0,0,0,0,0,0,0,0,0,0,0,0,0,0,0,0,0,0,0,0.0833,0.0834,0,0.0874,0.0874,0.0875,0.0914,0.0915,0.0915,0.0916,0.0945,0.0946,0.0946,0,0,0,0,0,0,0,0,0,0,0,0,0,0.0796,0.0796,0.0833,0.0834,0.0834,0.0873,0.0874,0.0875,0.0914,0.0915,0.0915,0.0916,0.0945,0.0945,0.0946,0,0,0,0,0,0,0,0,0,0,0,0,0,0.0822,0.0796,0.0833,0.0858,0.0861,0.0873,0.0874,0.0875,0.0914,0.0915,0.0915,0.0916,0.0945,0.0945,0.0946,0.0935,0,0,0.0948,0.0948,0,0,0,0,0,0,0,0,0.082,0.0823,0.0854,0.0857,0.0859,0.0889,0.0872,0.0894,0.0914,0.0894,0.0916,0.0916,0.0925,0.0927,0.0934,0.0936,0.0937,0.0948,0.0948,0.0948,0.0948,0,0,0,0,0,0,0,0.0819,0.0822,0.085,0.0854,0.0858,0.0869,0.0874,0.0876,0.0905,0.0896,0.0899,0.0902,0.0926,0.0933,0.0935,0.0938,0.0948,0.0948,0.0948,0.0949,0.1006,0.1007,0,0,0,0,0,0,0.0812,0.082,0.0848,0.0851,0.0841,0.0869,0.0874,0.0879,0.0905,0.091,0.0902,0.0904,0.0932,0.0934,0.0936,0.0997,0.0948,0.0949,0.0949,0.1004,0.1006,0.1007,0,0,0,0,0,0,0.0811,0.0814,0.0847,0.0836,0.0841,0.0869,0.0874,0.088,0.0911,0.091,0.0914,0.0931,0.0932,0.0935,0.0957,0.0995,0.0949,0.0949,0.1003,0.1005,0.1007,0.1071,0,0,0,0,0,0,0.081,0.0813,0.0825,0.0835,0.0841,0.087,0.0874,0.088,0.0911,0.0915,0.0935,0.0938,0.0933,0.0956,0.0957,0.0995,0.095,0.1001,0.1004,0.1006,0.1068,0.1075,0.1082,0,0,0,0,0,0.0808,0.0815,0.0825,0.0829,0.0853,0.0871,0.0876,0.0898,0.0912,0.0929,0.0942,0.0938,0.0972,0.0957,0.0958,0.0997,0.1,0.1003,0.1006,0.1065,0.1074,0.1082,0,0,0,0,0,0,0.0804,0.082,0.0831,0.0844,0.0865,0.0878,0.0897,0.0912,0.0936,0.0945,0.0946,0.0949,0.0985,0.0978,0.0962,0.102,0.0989,0.0992,0.1033,0.1041,0.1048,0.1062,0.095,0,0,0,0,0,0.0808,0.0822,0.0838,0.0852,0.0864,0.0887,0.0901,0.0916,0.0933,0.0946,0.0963,0.0978,0.0992,0.1006,0.1014,0.1041,0.1029,0.1069,0.1076,0.1082,0.1094,0.1121,0.1132,0.1016,0.1016,0.1016,0,0,0.081,0.0822,0.083,0.0853,0.0873,0.0892,0.0899,0.0926,0.0946,0.0943,0.0986,0.1002,0.1003,0.1038,0.1054,0.1041,0.1101,0.1085,0.109,0.11,0.1125,0.1136,0.1146,0.1018,0.1018,0.1017,0,0,0.0807,0.0835,0.084,0.0864,0.0894,0.0911,0.0925,0.0955,0.0977,0.1012,0.1018,0.1058,0.108,0.1097,0.1103,0.1151,0.1134,0.116,0.1212,0.1238,0.1248,0.1257,0.1223,0.1228,0.1167,0.1167,0.1168,0,0.0812,0.0817,0.0846,0.0862,0.0883,0.0922,0.0936,0.0964,0.1001,0.1026,0.1035,0.1103,0.1109,0.1154,0.1179,0.117,0.1163,0.118,0.1248,0.1257,0.1265,0.1228,0.1233,0.1171,0.1171,0.117,0.117,0,0.0806,0.0824,0.0835,0.0868,0.0899,0.092,0.096,0.1006,0.1046,0.1074,0.1141,0.1163,0.1206,0.1223,0.1219,0.1285,0.1251,0.1251,0.1228,0.128,0.1238,0.1242,0.1176,0.1175,0.1174,0.1173,0,0,0.0782,0.0819,0.0828,0.0847,0.0904,0.0929,0.0981,0.1034,0.1085,0.1141,0.1203,0.1252,0.1287,0.1297,0.1309,0.1349,0.1389,0.1336,0.1336,0.1303,0.1412,0.133,0.1326,0.1411,0.1413,0.1414,0.1348,0,0.0769,0.0786,0.0815,0.0856,0.087,0.0939,0.0986,0.1051,0.1115,0.1191,0.1242,0.1305,0.1304,0.1347,0.1384,0.1394,0.1409,0.1405,0.1366,0.1364,0.1287,0.1332,0.142,0.1351,0.1351,0.1352,0.1353,0,0.0747,0.0765,0.0783,0.0849,0.0867,0.0917,0.1026,0.1069,0.118,0.1237,0.132,0.1357,0.1424,0.1424,0.1456,0.1457,0.1442,0.1445,0.1442,0.1351,0.1292,0.1295,0.1359,0.1359,0.1358,0.1358,0.1357,0,0.0691,0.0748,0.0761,0.0784,0.0864,0.0919,0.0985,0.1097,0.1147,0.1283,0.1335,0.1415,0.1468,0.1478,0.1487,0.1477,0.1516,0.1486,0.1385,0.1375,0.1438,0.143,0.1509,0.1509,0.1509,0.1509,0.1509,0,0.0644,0.0663,0.0756,0.0758,0.0829,0.0907,0.0999,0.1082,0.1201,0.1266,0.1354,0.1405,0.1498,0.1524,0.1503,0.1456,0.1516,0.1399,0.1371,0.1459,0.1455,0.1438,0.143,0.1507,0.1507,0.1508,0.1508,0,0.0566,0.0608,0.0629,0.0733,0.079,0.0844,0.1,0.1071,0.118,0.127,0.1312,0.142,0.1451,0.1494,0.1529,0.1468,0.1438,0.1406,0.1479,0.1454,0.1257,0.1254,0.1249,0.1246,0.1243,0.1241,0.1239,0,0.0538,0.0528,0.0609,0.0655,0.0714,0.0829,0.0917,0.1055,0.113,0.1251,0.128,0.1362,0.1416,0.1376,0.143,0.1383,0.1373,0.1332,0.1315,0.1267,0.124,0.124,0.1241,0.1235,0.1234,0.1234,0.1233,0,0.0484,0.0493,0.0516,0.0598,0.0693,0.0771,0.0908,0.0952,0.11,0.1193,0.1239,0.1255,0.1293,0.1318,0.1328,0.1284,0.1349,0.1304,0.1308,0.1292,0.125,0.1226,0.1229,0.1224,0.1225,0.1226,0.1227,0,0.0481,0.0465,0.0498,0.0571,0.0649,0.0704,0.0779,0.0893,0.0968,0.1121,0.1131,0.1195,0.1298,0.1263,0.1248,0.1235,0.1188,0.1135,0.1147,0.1157,0.1162,0.1098,0.1008,0,0,0,0,0,0.0507,0.0476,0.0504,0.0552,0.0603,0.0661,0.0778,0.0857,0.0998,0.1011,0.1078,0.1105,0.1108,0.1131,0.1092,0.1161,0.1175,0.1105,0.1116,0.1174,0.1185,0.1202,0,0,0,0,0,0,0.0517,0.053,0.0486,0.0518,0.0556,0.0622,0.0683,0.0776,0.08,0.0935,0.0948,0.1032,0.1052,0.1129,0.1073,0.1078,0.1057,0.1153,0.1149,0.1169,0.1178,0.1186,0.1208,0,0,0,0,0]},{"header":{"parameterUnit":"m.s-1","parameterCategory":2,"la1":30.2991,"la2":30.254,"lo1":-89.0895,"lo2":-89.0444,"dy":0.0017,"dx":0.0017,"nx":28,"ny":28,"refTime":"2025-01-23T03:00:00:Z","depth":"4","parameterNumber":3,"parameterNumberName":"V-component_of_CURRENTS"},"data":[0,0,0,0,0,0,0,0,0,0,0,0,0,0,0,0,0,0,0,0,0,0,0,0,0,0,0,0,0,0,0,0,0,0,0,0,0,0,0,0,0,0,0,0,0,0,0,0,0,0,0,0,0,0,0,0,0,0,0.0181,0.0181,0,0.017,0.017,0.017,0.0187,0.0188,0.0188,0.0189,0.0202,0.0202,0.0202,0,0,0,0,0,0,0,0,0,0,0,0,0,0.0183,0.0183,0.0181,0.0181,0.018,0.0171,0.017,0.017,0.0187,0.0188,0.0188,0.0189,0.0202,0.0202,0.0202,0,0,0,0,0,0,0,0,0,0,0,0,0,0.0178,0.0183,0.0181,0.0188,0.0188,0.0171,0.017,0.017,0.0187,0.0188,0.0188,0.0189,0.0202,0.0202,0.0202,0.0183,0,0,0.0201,0.0201,0,0,0,0,0,0,0,0,0.0179,0.0178,0.0187,0.0187,0.0188,0.0181,0.0176,0.0176,0.0186,0.0187,0.0189,0.019,0.0197,0.0197,0.0193,0.0183,0.0184,0.0201,0.0201,0.0201,0.0201,0,0,0,0,0,0,0,0.0179,0.0179,0.0177,0.0187,0.0187,0.0181,0.0181,0.0176,0.0187,0.0187,0.0188,0.0187,0.0197,0.0193,0.0193,0.0184,0.0201,0.0201,0.0201,0.02,0.0172,0.0171,0,0,0,0,0,0,0.0181,0.0179,0.0177,0.0176,0.0185,0.018,0.0181,0.0182,0.0187,0.0188,0.0186,0.0188,0.0193,0.0193,0.0194,0.0182,0.0201,0.02,0.02,0.0172,0.0172,0.0171,0,0,0,0,0,0,0.0181,0.0181,0.0177,0.0177,0.0176,0.0179,0.0181,0.0182,0.0182,0.0186,0.0188,0.0187,0.0194,0.0194,0.0193,0.0182,0.02,0.02,0.0173,0.0172,0.0171,0.0152,0,0,0,0,0,0,0.0181,0.0181,0.018,0.0178,0.0177,0.0168,0.018,0.0181,0.018,0.0182,0.0187,0.0189,0.0194,0.0193,0.0192,0.0182,0.02,0.0174,0.0173,0.0172,0.0153,0.015,0.0148,0,0,0,0,0,0.0182,0.0174,0.018,0.018,0.0176,0.0167,0.0166,0.017,0.0179,0.0175,0.0181,0.0189,0.0185,0.0192,0.0192,0.0181,0.0174,0.0173,0.0172,0.0154,0.0151,0.0148,0,0,0,0,0,0,0.017,0.0175,0.0182,0.0176,0.0174,0.017,0.0165,0.0169,0.0169,0.0175,0.0182,0.0184,0.0178,0.018,0.0188,0.0169,0.018,0.0179,0.0168,0.0164,0.0162,0.0164,0.02,0,0,0,0,0,0.0168,0.0168,0.0169,0.0165,0.0164,0.0165,0.0162,0.0166,0.0167,0.0168,0.0171,0.0173,0.0169,0.0169,0.0166,0.0156,0.0139,0.0148,0.0146,0.0143,0.0144,0.0104,0.0097,0.0167,0.0167,0.0167,0,0,0.0161,0.0165,0.0164,0.0163,0.0162,0.0163,0.0165,0.0161,0.0161,0.0169,0.0168,0.0164,0.0164,0.0153,0.0151,0.0157,0.0113,0.0142,0.014,0.0142,0.0102,0.0095,0.0089,0.0166,0.0166,0.0166,0,0,0.0155,0.0152,0.0156,0.0155,0.0158,0.0156,0.0156,0.0154,0.0153,0.015,0.0152,0.014,0.0141,0.0132,0.013,0.0108,0.01,0.011,0.01,0.006,0.0054,0.0048,0.0009,0.0001,0.0109,0.0109,0.0109,0,0.0148,0.0159,0.0153,0.0159,0.0161,0.0156,0.0162,0.0152,0.015,0.0144,0.0151,0.013,0.0129,0.0108,0.0104,0.0102,0.0081,0.0113,0.0056,0.005,0.0045,0.0006,-0.0003,0.0108,0.0108,0.0108,0.0109,0,0.0153,0.0161,0.016,0.0172,0.0166,0.0168,0.0159,0.0151,0.015,0.0141,0.012,0.0107,0.0098,0.0088,0.0093,0.0054,0.0051,0.0056,0.0064,0.0036,-0.0002,-0.0012,0.0107,0.0107,0.0107,0.0108,0,0,0.0151,0.0164,0.0166,0.0179,0.0178,0.0175,0.0165,0.0155,0.0147,0.0128,0.0113,0.009,0.0078,0.0074,0.0064,0.0029,-0.0031,0.0029,0.0028,-0.0009,-0.0122,-0.0067,-0.0073,-0.0037,-0.0038,-0.004,-0.0137,0,0.0166,0.0186,0.0184,0.0198,0.0209,0.0196,0.0184,0.0168,0.0153,0.0131,0.0096,0.0083,0.0073,0.007,0.0027,-0.0014,-0.0055,-0.0005,-0.0089,-0.0092,-0.004,-0.0081,-0.0044,-0.0144,-0.0146,-0.0148,-0.0149,0,0.0187,0.0197,0.0219,0.0222,0.0223,0.0227,0.0212,0.0202,0.016,0.0146,0.0113,0.009,0.0036,0.0037,-0.0067,-0.0034,-0.0077,-0.0114,-0.0119,-0.0065,-0.0054,-0.0109,-0.0167,-0.0165,-0.0164,-0.0163,-0.0162,0,0.0206,0.0224,0.0246,0.0249,0.0246,0.025,0.0245,0.0212,0.0201,0.0163,0.0147,0.0078,0.0061,-0.0025,-0.0084,-0.0085,-0.0193,-0.0206,-0.0205,-0.0202,-0.0213,-0.0206,-0.0282,-0.0281,-0.0281,-0.0281,-0.0281,0,0.0228,0.0241,0.0263,0.0272,0.0289,0.0277,0.0281,0.0261,0.0231,0.0228,0.0162,0.0144,0.0048,-0.0016,-0.0095,-0.0169,-0.0205,-0.0215,-0.0225,-0.0219,-0.0212,-0.022,-0.0212,-0.0285,-0.0284,-0.0283,-0.0282,0,0.0234,0.0253,0.0273,0.0286,0.0303,0.0308,0.0317,0.0323,0.028,0.0274,0.0266,0.019,0.0111,0.0013,-0.0105,-0.0157,-0.0249,-0.0259,-0.0241,-0.0247,-0.024,-0.0232,-0.0307,-0.0306,-0.0305,-0.0305,-0.0304,0,0.0234,0.0254,0.0289,0.032,0.0333,0.0355,0.0385,0.036,0.037,0.0311,0.0316,0.0241,0.0191,0.0048,-0.0062,-0.0216,-0.0217,-0.0272,-0.027,-0.0242,-0.0244,-0.0237,-0.023,-0.0303,-0.0302,-0.0302,-0.0302,0,0.0224,0.0244,0.0255,0.0343,0.0393,0.0423,0.0461,0.0464,0.0447,0.0409,0.0379,0.0294,0.0214,0.0087,-0.0004,-0.0119,-0.0252,-0.0263,-0.0267,-0.0266,-0.0237,-0.0238,-0.0232,-0.0299,-0.0299,-0.0299,-0.03,0,0.0219,0.0225,0.0284,0.0361,0.0419,0.0482,0.0488,0.0519,0.0513,0.046,0.0462,0.0343,0.0287,0.0138,0.0036,-0.0054,-0.0095,-0.013,-0.0142,-0.0147,-0.006,0.0003,-0.0001,0,0,0,0,0,0.0226,0.0263,0.032,0.04,0.0461,0.0517,0.0545,0.0548,0.0538,0.0544,0.0501,0.0432,0.028,0.019,0.0111,0.0026,-0.0127,-0.0073,-0.0176,-0.0281,-0.0285,-0.0204,0,0,0,0,0,0,0.0233,0.0281,0.0319,0.0433,0.0509,0.0585,0.0604,0.0603,0.059,0.0564,0.0484,0.0435,0.028,0.0352,0.0125,0.0089,0.0015,-0.0152,-0.0153,-0.0279,-0.0282,-0.0285,-0.0203,0,0,0,0,0]}]]